M I D A S
Marine Information and Data Acquisition System
Tripno 1405 of the Zeeleeuw from 2007-10-19 08:22:55 to 2007-10-19 12:29:27
Back to CruiseResearch ActivitiesStationsMapUnderway DataData graphs

EquipmentUnitsComment
TimeDGPSUTC
LatitudeDGPSDM.mWGS84
LongitudeDGPSDM.mWGS84
TemperatureSBE03/SBE38deg celciusITS90
ConductivitySBE21S/mITS90
SalinitySBE21 Practical Salinity Units
ChlorophylAChelsea fluorimeterg/lCalibrated in Aceton
Missing or incorrect values are displayed as -999
Sea surface data collected by the RV Zeeleeuw from 2007-10-19 06:05:42 to 2007-10-19 12:38:35
Time Latitude Longitude Temperature Conductivity Salinity ChlorophylA
2007-10-19 06:06:50 51°13.618 2°56.02 -999 -999 -999 -999
2007-10-19 06:07:50 51°13.659 2°55.893 -999 -999 -999 -999
2007-10-19 06:08:50 51°13.684 2°55.781 -999 -999 -999 -999
2007-10-19 06:09:48 51°13.686 2°55.719 -999 -999 -999 -999
2007-10-19 06:10:46 51°13.709 2°55.724 -999 -999 -999 -999
2007-10-19 06:11:46 51°13.805 2°55.658 -999 -999 -999 -999
2007-10-19 06:12:46 51°13.943 2°55.566 -999 -999 -999 -999
2007-10-19 06:13:48 51°14.088 2°55.461 -999 -999 -999 -999
2007-10-19 06:14:50 51°14.223 2°55.329 -999 -999 -999 -999
2007-10-19 06:15:48 51°14.314 2°55.138 -999 -999 -999 -999
2007-10-19 06:16:47 51°14.414 2°54.906 -999 -999 -999 -999
2007-10-19 06:17:46 51°14.576 2°54.733 -999 -999 -999 -999
2007-10-19 06:18:46 51°14.751 2°54.565 -999 -999 -999 -999
2007-10-19 06:19:46 51°14.931 2°54.412 -999 -999 -999 -999
2007-10-19 06:20:46 51°15.109 2°54.249 -999 -999 -999 -999
2007-10-19 06:21:46 51°15.285 2°54.076 -999 -999 -999 -999
2007-10-19 06:22:46 51°15.465 2°53.915 -999 -999 -999 -999
2007-10-19 06:23:46 51°15.646 2°53.759 -999 -999 -999 -999
2007-10-19 06:24:46 51°15.828 2°53.602 -999 -999 -999 -999
2007-10-19 06:25:46 51°16.009 2°53.451 -999 -999 -999 -999
2007-10-19 06:26:47 51°16.195 2°53.297 -999 -999 -999 -999
2007-10-19 06:27:46 51°16.372 2°53.149 -999 -999 -999 -999
2007-10-19 06:28:46 51°16.553 2°52.998 -999 -999 -999 -999
2007-10-19 06:29:46 51°16.737 2°52.844 -999 -999 -999 -999
2007-10-19 06:30:46 51°16.919 2°52.7 -999 -999 -999 -999
2007-10-19 06:31:47 51°17.119 2°52.592 -999 -999 -999 -999
2007-10-19 06:32:46 51°17.323 2°52.535 -999 -999 -999 -999
2007-10-19 06:33:46 51°17.532 2°52.491 -999 -999 -999 -999
2007-10-19 06:34:46 51°17.74 2°52.455 -999 -999 -999 -999
2007-10-19 06:35:46 51°17.951 2°52.454 -999 -999 -999 -999
2007-10-19 06:36:46 51°18.136 2°52.614 -999 -999 -999 -999
2007-10-19 06:37:46 51°18.266 2°52.891 -999 -999 -999 -999
2007-10-19 06:38:46 51°18.387 2°53.178 -999 -999 -999 -999
2007-10-19 06:39:46 51°18.512 2°53.462 -999 -999 -999 -999
2007-10-19 06:40:47 51°18.642 2°53.746 -999 -999 -999 -999
2007-10-19 06:41:46 51°18.771 2°54.018 -999 -999 -999 -999
2007-10-19 06:42:46 51°18.903 2°54.294 -999 -999 -999 -999
2007-10-19 06:43:46 51°19.036 2°54.569 -999 -999 -999 -999
2007-10-19 06:44:46 51°19.167 2°54.845 -999 -999 -999 -999
2007-10-19 06:45:46 51°19.296 2°55.122 -999 -999 -999 -999
2007-10-19 06:46:46 51°19.419 2°55.406 -999 -999 -999 -999
2007-10-19 06:47:46 51°19.542 2°55.688 -999 -999 -999 -999
2007-10-19 06:48:46 51°19.666 2°55.969 -999 -999 -999 -999
2007-10-19 06:49:47 51°19.792 2°56.254 -999 -999 -999 -999
2007-10-19 06:50:46 51°19.915 2°56.529 -999 -999 -999 -999
2007-10-19 06:51:46 51°20.041 2°56.808 -999 -999 -999 -999
2007-10-19 06:52:46 51°20.166 2°57.087 -999 -999 -999 -999
2007-10-19 06:53:46 51°20.289 2°57.366 -999 -999 -999 -999
2007-10-19 06:54:46 51°20.41 2°57.648 -999 -999 -999 -999
2007-10-19 06:55:46 51°20.52 2°57.941 -999 -999 -999 -999
2007-10-19 06:56:46 51°20.635 2°58.23 -999 -999 -999 -999
2007-10-19 06:57:46 51°20.749 2°58.52 -999 -999 -999 -999
2007-10-19 06:58:47 51°20.866 2°58.813 -999 -999 -999 -999
2007-10-19 06:59:47 51°20.979 2°59.104 -999 -999 -999 -999
2007-10-19 07:00:47 51°21.092 2°59.392 -999 -999 -999 -999
2007-10-19 07:01:46 51°21.222 2°59.652 -999 -999 -999 -999
2007-10-19 07:02:46 51°21.411 2°59.799 -999 -999 -999 -999
2007-10-19 07:03:46 51°21.615 2°59.864 -999 -999 -999 -999
2007-10-19 07:04:46 51°21.816 2°59.806 -999 -999 -999 -999
2007-10-19 07:05:46 51°22.026 2°59.777 -999 -999 -999 -999
2007-10-19 07:06:46 51°22.233 2°59.758 -999 -999 -999 -999
2007-10-19 07:07:46 51°22.441 2°59.726 -999 -999 -999 -999
2007-10-19 07:08:46 51°22.648 2°59.699 -999 -999 -999 -999
2007-10-19 07:09:46 51°22.856 2°59.674 -999 -999 -999 -999
2007-10-19 07:10:46 51°23.063 2°59.654 -999 -999 -999 -999
2007-10-19 07:11:46 51°23.271 2°59.636 -999 -999 -999 -999
2007-10-19 07:12:46 51°23.478 2°59.6 -999 -999 -999 -999
2007-10-19 07:13:46 51°23.686 2°59.561 -999 -999 -999 -999
2007-10-19 07:14:46 51°23.896 2°59.52 -999 -999 -999 -999
2007-10-19 07:15:46 51°24.105 2°59.478 -999 -999 -999 -999
2007-10-19 07:16:46 51°24.313 2°59.413 -999 -999 -999 -999
2007-10-19 07:17:46 51°24.516 2°59.315 -999 -999 -999 -999
2007-10-19 07:18:46 51°24.718 2°59.217 -999 -999 -999 -999
2007-10-19 07:19:46 51°24.92 2°59.118 -999 -999 -999 -999
2007-10-19 07:20:46 51°25.1 2°58.952 -999 -999 -999 -999
2007-10-19 07:21:46 51°25.277 2°58.776 -999 -999 -999 -999
2007-10-19 07:22:46 51°25.45 2°58.602 -999 -999 -999 -999
2007-10-19 07:23:46 51°25.624 2°58.429 -999 -999 -999 -999
2007-10-19 07:24:46 51°25.799 2°58.262 -999 -999 -999 -999
2007-10-19 07:25:46 51°25.978 2°58.092 -999 -999 -999 -999
2007-10-19 07:26:46 51°26.157 2°57.918 -999 -999 -999 -999
2007-10-19 07:27:46 51°26.341 2°57.744 -999 -999 -999 -999
2007-10-19 07:28:46 51°26.526 2°57.574 -999 -999 -999 -999
2007-10-19 07:29:46 51°26.708 2°57.4 -999 -999 -999 -999
2007-10-19 07:30:46 51°26.889 2°57.224 -999 -999 -999 -999
2007-10-19 07:31:46 51°27.071 2°57.048 -999 -999 -999 -999
2007-10-19 07:32:46 51°27.252 2°56.875 -999 -999 -999 -999
2007-10-19 07:33:46 51°27.432 2°56.701 -999 -999 -999 -999
2007-10-19 07:34:46 51°27.61 2°56.529 -999 -999 -999 -999
2007-10-19 07:35:46 51°27.788 2°56.353 -999 -999 -999 -999
2007-10-19 07:36:46 51°27.967 2°56.18 -999 -999 -999 -999
2007-10-19 07:37:46 51°28.147 2°56.006 -999 -999 -999 -999
2007-10-19 07:38:46 51°28.326 2°55.833 -999 -999 -999 -999
2007-10-19 07:39:46 51°28.505 2°55.658 -999 -999 -999 -999
2007-10-19 07:40:46 51°28.689 2°55.482 -999 -999 -999 -999
2007-10-19 07:41:46 51°28.87 2°55.304 -999 -999 -999 -999
2007-10-19 07:42:46 51°29.049 2°55.126 -999 -999 -999 -999
2007-10-19 07:43:46 51°29.226 2°54.949 -999 -999 -999 -999
2007-10-19 07:44:46 51°29.405 2°54.768 -999 -999 -999 -999
2007-10-19 07:45:46 51°29.583 2°54.587 -999 -999 -999 -999
2007-10-19 07:46:46 51°29.761 2°54.406 -999 -999 -999 -999
2007-10-19 07:47:46 51°29.944 2°54.243 -999 -999 -999 -999
2007-10-19 07:48:46 51°30.129 2°54.076 -999 -999 -999 -999
2007-10-19 07:49:46 51°30.323 2°53.94 -999 -999 -999 -999
2007-10-19 07:50:46 51°30.524 2°53.845 -999 -999 -999 -999
2007-10-19 07:51:46 51°30.725 2°53.745 -999 -999 -999 -999
2007-10-19 07:52:46 51°30.929 2°53.645 -999 -999 -999 -999
2007-10-19 07:53:46 51°31.131 2°53.548 -999 -999 -999 -999
2007-10-19 07:54:46 51°31.338 2°53.451 -999 -999 -999 -999
2007-10-19 07:55:46 51°31.545 2°53.354 -999 -999 -999 -999
2007-10-19 07:56:46 51°31.751 2°53.264 -999 -999 -999 -999
2007-10-19 07:57:46 51°31.96 2°53.183 -999 -999 -999 -999
2007-10-19 07:58:46 51°32.166 2°53.084 -999 -999 -999 -999
2007-10-19 07:59:46 51°32.369 2°52.983 -999 -999 -999 -999
2007-10-19 08:00:46 51°32.555 2°52.889 -999 -999 -999 -999
2007-10-19 08:01:46 51°32.677 2°52.837 -999 -999 -999 -999
2007-10-19 08:02:46 51°32.81 2°52.77 -999 -999 -999 -999
2007-10-19 08:03:46 51°32.94 2°52.706 -999 -999 -999 -999
2007-10-19 08:04:46 51°33.079 2°52.64 -999 -999 -999 -999
2007-10-19 08:05:46 51°33.231 2°52.568 -999 -999 -999 -999
2007-10-19 08:06:46 51°33.311 2°52.412 -999 -999 -999 -999
2007-10-19 08:07:46 51°33.343 2°52.254 -999 -999 -999 -999
2007-10-19 08:08:46 51°33.36 2°52.111 -999 -999 -999 -999
2007-10-19 08:09:46 51°33.318 2°51.98 -999 -999 -999 -999
2007-10-19 08:10:46 51°33.272 2°51.853 -999 -999 -999 -999
2007-10-19 08:11:46 51°33.216 2°51.768 -999 -999 -999 -999
2007-10-19 08:12:46 51°33.173 2°51.701 -999 -999 -999 -999
2007-10-19 08:13:46 51°33.141 2°51.642 -999 -999 -999 -999
2007-10-19 08:14:46 51°33.121 2°51.594 -999 -999 -999 -999
2007-10-19 08:15:46 51°33.113 2°51.563 -999 -999 -999 -999
2007-10-19 08:16:46 51°33.13 2°51.492 -999 -999 -999 -999
2007-10-19 08:17:46 51°33.197 2°51.516 -999 -999 -999 -999
2007-10-19 08:18:46 51°33.175 2°51.623 -999 -999 -999 -999
2007-10-19 08:19:46 51°33.129 2°51.682 -999 -999 -999 -999
2007-10-19 08:20:46 51°33.11 2°51.707 -999 -999 -999 -999
2007-10-19 08:21:46 51°33.11 2°51.703 -999 -999 -999 -999
2007-10-19 08:22:48 51°33.108 2°51.701 -999 -999 -999 -999
2007-10-19 08:23:50 51°33.106 2°51.697 -999 -999 -999 -999
2007-10-19 08:24:48 51°33.102 2°51.695 -999 -999 -999 -999
2007-10-19 08:25:46 51°33.1 2°51.695 -999 -999 -999 -999
2007-10-19 08:26:46 51°33.094 2°51.706 -999 -999 -999 -999
2007-10-19 08:27:46 51°33.089 2°51.751 -999 -999 -999 -999
2007-10-19 08:28:46 51°33.085 2°51.782 -999 -999 -999 -999
2007-10-19 08:29:46 51°33.083 2°51.804 -999 -999 -999 -999
2007-10-19 08:30:46 51°33.082 2°51.82 -999 -999 -999 -999
2007-10-19 08:31:46 51°33.078 2°51.829 -999 -999 -999 -999
2007-10-19 08:32:46 51°33.074 2°51.835 -999 -999 -999 -999
2007-10-19 08:33:46 51°33.071 2°51.846 -999 -999 -999 -999
2007-10-19 08:34:46 51°33.083 2°51.895 -999 -999 -999 -999
2007-10-19 08:35:46 51°33.141 2°51.886 -999 -999 -999 -999
2007-10-19 08:36:46 51°33.144 2°51.773 -999 -999 -999 -999
2007-10-19 08:37:46 51°33.144 2°51.68 -999 -999 -999 -999
2007-10-19 08:38:46 51°33.148 2°51.625 -999 -999 -999 -999
2007-10-19 08:39:46 51°33.159 2°51.579 -999 -999 -999 -999
2007-10-19 08:40:46 51°33.173 2°51.548 -999 -999 -999 -999
2007-10-19 08:41:46 51°33.178 2°51.53 -999 -999 -999 -999
2007-10-19 08:42:46 51°33.178 2°51.52 -999 -999 -999 -999
2007-10-19 08:43:46 51°33.173 2°51.515 -999 -999 -999 -999
2007-10-19 08:44:46 51°33.168 2°51.513 -999 -999 -999 -999
2007-10-19 08:45:46 51°33.163 2°51.512 -999 -999 -999 -999
2007-10-19 08:46:46 51°33.158 2°51.513 -999 -999 -999 -999
2007-10-19 08:47:46 51°33.153 2°51.514 -999 -999 -999 -999
2007-10-19 08:48:46 51°33.149 2°51.515 -999 -999 -999 -999
2007-10-19 08:49:46 51°33.144 2°51.514 -999 -999 -999 -999
2007-10-19 08:50:46 51°33.139 2°51.513 -999 -999 -999 -999
2007-10-19 08:51:46 51°33.134 2°51.51 -999 -999 -999 -999
2007-10-19 08:52:46 51°33.129 2°51.507 -999 -999 -999 -999
2007-10-19 08:53:46 51°33.124 2°51.504 -999 -999 -999 -999
2007-10-19 08:54:46 51°33.119 2°51.5 -999 -999 -999 -999
2007-10-19 08:55:46 51°33.115 2°51.496 -999 -999 -999 -999
2007-10-19 08:56:46 51°33.111 2°51.493 -999 -999 -999 -999
2007-10-19 08:57:46 51°33.106 2°51.489 -999 -999 -999 -999
2007-10-19 08:58:46 51°33.102 2°51.485 -999 -999 -999 -999
2007-10-19 08:59:46 51°33.097 2°51.482 -999 -999 -999 -999
2007-10-19 09:00:46 51°33.093 2°51.479 -999 -999 -999 -999
2007-10-19 09:01:46 51°33.087 2°51.476 -999 -999 -999 -999
2007-10-19 09:02:46 51°33.082 2°51.471 -999 -999 -999 -999
2007-10-19 09:03:46 51°33.079 2°51.464 -999 -999 -999 -999
2007-10-19 09:04:46 51°33.075 2°51.457 -999 -999 -999 -999
2007-10-19 09:05:46 51°33.07 2°51.449 -999 -999 -999 -999
2007-10-19 09:06:46 51°33.066 2°51.44 -999 -999 -999 -999
2007-10-19 09:07:46 51°33.062 2°51.43 -999 -999 -999 -999
2007-10-19 09:08:46 51°33.058 2°51.413 -999 -999 -999 -999
2007-10-19 09:09:46 51°33.034 2°51.369 -999 -999 -999 -999
2007-10-19 09:10:46 51°32.993 2°51.383 -999 -999 -999 -999
2007-10-19 09:11:46 51°32.986 2°51.457 -999 -999 -999 -999
2007-10-19 09:12:46 51°33.024 2°51.503 -999 -999 -999 -999
2007-10-19 09:13:46 51°33.054 2°51.522 -999 -999 -999 -999
2007-10-19 09:14:46 51°33.067 2°51.528 -999 -999 -999 -999
2007-10-19 09:15:46 51°33.071 2°51.523 -999 -999 -999 -999
2007-10-19 09:16:46 51°33.068 2°51.513 -999 -999 -999 -999
2007-10-19 09:17:46 51°33.061 2°51.502 -999 -999 -999 -999
2007-10-19 09:18:46 51°33.054 2°51.495 -999 -999 -999 -999
2007-10-19 09:19:46 51°33.045 2°51.492 -999 -999 -999 -999
2007-10-19 09:20:47 51°33.037 2°51.49 -999 -999 -999 -999
2007-10-19 09:21:46 51°33.031 2°51.491 -999 -999 -999 -999
2007-10-19 09:22:47 51°33.026 2°51.486 -999 -999 -999 -999
2007-10-19 09:23:46 51°33.02 2°51.479 -999 -999 -999 -999
2007-10-19 09:24:46 51°33.023 2°51.437 -999 -999 -999 -999
2007-10-19 09:25:46 51°33.067 2°51.388 -999 -999 -999 -999
2007-10-19 09:26:46 51°33.111 2°51.424 -999 -999 -999 -999
2007-10-19 09:27:46 51°33.124 2°51.473 -999 -999 -999 -999
2007-10-19 09:28:46 51°33.124 2°51.506 -999 -999 -999 -999
2007-10-19 09:29:47 51°33.123 2°51.524 -999 -999 -999 -999
2007-10-19 09:30:46 51°33.121 2°51.534 -999 -999 -999 -999
2007-10-19 09:31:47 51°33.117 2°51.537 -999 -999 -999 -999
2007-10-19 09:32:46 51°33.113 2°51.535 -999 -999 -999 -999
2007-10-19 09:33:46 51°33.107 2°51.529 -999 -999 -999 -999
2007-10-19 09:34:46 51°33.101 2°51.521 -999 -999 -999 -999
2007-10-19 09:35:46 51°33.095 2°51.512 -999 -999 -999 -999
2007-10-19 09:36:46 51°33.088 2°51.501 -999 -999 -999 -999
2007-10-19 09:37:46 51°33.08 2°51.489 -999 -999 -999 -999
2007-10-19 09:38:47 51°33.072 2°51.479 -999 -999 -999 -999
2007-10-19 09:39:46 51°33.063 2°51.469 -999 -999 -999 -999
2007-10-19 09:40:46 51°33.053 2°51.462 -999 -999 -999 -999
2007-10-19 09:41:46 51°33.042 2°51.458 -999 -999 -999 -999
2007-10-19 09:42:46 51°33.031 2°51.491 -999 -999 -999 -999
2007-10-19 09:43:47 51°33.026 2°51.562 -999 -999 -999 -999
2007-10-19 09:44:46 51°33.027 2°51.62 -999 -999 -999 -999
2007-10-19 09:45:47 51°33.026 2°51.656 -999 -999 -999 -999
2007-10-19 09:46:46 51°33.024 2°51.676 -999 -999 -999 -999
2007-10-19 09:47:46 51°33.019 2°51.688 -999 -999 -999 -999
2007-10-19 09:48:46 51°33.022 2°51.711 -999 -999 -999 -999
2007-10-19 09:49:46 51°33.061 2°51.714 -999 -999 -999 -999
2007-10-19 09:50:46 51°33.104 2°51.647 -999 -999 -999 -999
2007-10-19 09:51:46 51°33.157 2°51.613 -999 -999 -999 -999
2007-10-19 09:52:46 51°33.172 2°51.625 -999 -999 -999 -999
2007-10-19 09:53:49 51°33.162 2°51.617 -999 -999 -999 -999
2007-10-19 09:54:48 51°33.132 2°51.657 -999 -999 -999 -999
2007-10-19 09:55:47 51°33.113 2°51.663 -999 -999 -999 -999
2007-10-19 09:56:46 51°33.102 2°51.656 -999 -999 -999 -999
2007-10-19 09:57:46 51°33.086 2°51.65 -999 -999 -999 -999
2007-10-19 09:58:47 51°33.067 2°51.642 -999 -999 -999 -999
2007-10-19 09:59:47 51°33.047 2°51.633 -999 -999 -999 -999
2007-10-19 10:00:46 51°33.026 2°51.625 -999 -999 -999 -999
2007-10-19 10:01:47 51°33.005 2°51.615 -999 -999 -999 -999
2007-10-19 10:02:46 51°32.981 2°51.608 -999 -999 -999 -999
2007-10-19 10:03:46 51°32.951 2°51.631 -999 -999 -999 -999
2007-10-19 10:04:46 51°32.935 2°51.645 -999 -999 -999 -999
2007-10-19 10:05:46 51°32.925 2°51.654 -999 -999 -999 -999
2007-10-19 10:06:46 51°32.919 2°51.674 -999 -999 -999 -999
2007-10-19 10:07:46 51°32.942 2°51.709 -999 -999 -999 -999
2007-10-19 10:08:46 51°32.997 2°51.67 -999 -999 -999 -999
2007-10-19 10:09:46 51°33.029 2°51.62 -999 -999 -999 -999
2007-10-19 10:10:46 51°33.03 2°51.593 -999 -999 -999 -999
2007-10-19 10:11:46 51°33.025 2°51.57 -999 -999 -999 -999
2007-10-19 10:12:47 51°33.015 2°51.549 -999 -999 -999 -999
2007-10-19 10:13:46 51°33.005 2°51.531 -999 -999 -999 -999
2007-10-19 10:14:47 51°32.994 2°51.514 -999 -999 -999 -999
2007-10-19 10:15:46 51°32.983 2°51.497 -999 -999 -999 -999
2007-10-19 10:16:46 51°32.975 2°51.456 -999 -999 -999 -999
2007-10-19 10:17:47 51°33.024 2°51.41 -999 -999 -999 -999
2007-10-19 10:18:46 51°33.025 2°51.401 -999 -999 -999 -999
2007-10-19 10:19:48 51°33.015 2°51.391 -999 -999 -999 -999
2007-10-19 10:20:48 51°33.005 2°51.378 -999 -999 -999 -999
2007-10-19 10:21:47 51°32.993 2°51.369 -999 -999 -999 -999
2007-10-19 10:22:46 51°32.983 2°51.381 -999 -999 -999 -999
2007-10-19 10:23:46 51°33.01 2°51.416 -999 -999 -999 -999
2007-10-19 10:24:46 51°33.079 2°51.432 -999 -999 -999 -999
2007-10-19 10:25:46 51°33.215 2°51.538 -999 -999 -999 -999
2007-10-19 10:26:46 51°33.403 2°51.629 -999 -999 -999 -999
2007-10-19 10:27:46 51°33.58 2°51.733 -999 -999 -999 -999
2007-10-19 10:28:46 51°33.704 2°51.867 -999 -999 -999 -999
2007-10-19 10:29:46 51°33.776 2°51.958 -999 -999 -999 -999
2007-10-19 10:30:46 51°33.833 2°52.028 -999 -999 -999 -999
2007-10-19 10:31:46 51°33.9 2°52.109 -999 -999 -999 -999
2007-10-19 10:32:46 51°33.969 2°52.191 -999 -999 -999 -999
2007-10-19 10:33:46 51°34.034 2°52.272 -999 -999 -999 -999
2007-10-19 10:34:46 51°34.091 2°52.345 -999 -999 -999 -999
2007-10-19 10:35:46 51°34.134 2°52.399 -999 -999 -999 -999
2007-10-19 10:36:46 51°34.162 2°52.436 -999 -999 -999 -999
2007-10-19 10:37:46 51°34.187 2°52.467 -999 -999 -999 -999
2007-10-19 10:38:46 51°34.201 2°52.503 -999 -999 -999 -999
2007-10-19 10:39:46 51°34.217 2°52.54 -999 -999 -999 -999
2007-10-19 10:40:46 51°34.239 2°52.546 -999 -999 -999 -999
2007-10-19 10:41:46 51°34.257 2°52.518 -999 -999 -999 -999
2007-10-19 10:42:46 51°34.254 2°52.432 -999 -999 -999 -999
2007-10-19 10:43:46 51°34.198 2°52.388 -999 -999 -999 -999
2007-10-19 10:44:46 51°34.158 2°52.407 -999 -999 -999 -999
2007-10-19 10:45:46 51°34.137 2°52.404 -999 -999 -999 -999
2007-10-19 10:46:50 51°34.128 2°52.371 -999 -999 -999 -999
2007-10-19 10:47:48 51°34.115 2°52.348 -999 -999 -999 -999
2007-10-19 10:48:47 51°34.098 2°52.331 -999 -999 -999 -999
2007-10-19 10:49:46 51°34.081 2°52.315 -999 -999 -999 -999
2007-10-19 10:50:46 51°34.064 2°52.3 -999 -999 -999 -999
2007-10-19 10:51:46 51°34.046 2°52.287 -999 -999 -999 -999
2007-10-19 10:52:46 51°34.029 2°52.275 -999 -999 -999 -999
2007-10-19 10:53:46 51°34.011 2°52.264 -999 -999 -999 -999
2007-10-19 10:54:46 51°33.994 2°52.254 -999 -999 -999 -999
2007-10-19 10:55:46 51°33.958 2°52.311 -999 -999 -999 -999
2007-10-19 10:56:47 51°33.818 2°52.37 -999 -999 -999 -999
2007-10-19 10:57:46 51°33.62 2°52.279 -999 -999 -999 -999
2007-10-19 10:58:46 51°33.408 2°52.232 -999 -999 -999 -999
2007-10-19 10:59:46 51°33.193 2°52.209 -999 -999 -999 -999
2007-10-19 11:00:46 51°32.977 2°52.19 -999 -999 -999 -999
2007-10-19 11:01:46 51°32.765 2°52.184 -999 -999 -999 -999
2007-10-19 11:02:46 51°32.55 2°52.181 -999 -999 -999 -999
2007-10-19 11:03:46 51°32.337 2°52.176 -999 -999 -999 -999
2007-10-19 11:04:46 51°32.121 2°52.17 -999 -999 -999 -999
2007-10-19 11:05:46 51°31.904 2°52.16 -999 -999 -999 -999
2007-10-19 11:06:46 51°31.689 2°52.144 -999 -999 -999 -999
2007-10-19 11:07:46 51°31.474 2°52.133 -999 -999 -999 -999
2007-10-19 11:08:46 51°31.256 2°52.114 -999 -999 -999 -999
2007-10-19 11:09:46 51°31.039 2°52.098 -999 -999 -999 -999
2007-10-19 11:10:46 51°30.822 2°52.082 -999 -999 -999 -999
2007-10-19 11:11:46 51°30.607 2°52.06 -999 -999 -999 -999
2007-10-19 11:12:46 51°30.392 2°52.05 -999 -999 -999 -999
2007-10-19 11:13:46 51°30.177 2°52.038 -999 -999 -999 -999
2007-10-19 11:14:46 51°29.961 2°52.02 -999 -999 -999 -999
2007-10-19 11:15:46 51°29.743 2°52.002 -999 -999 -999 -999
2007-10-19 11:16:46 51°29.525 2°51.988 -999 -999 -999 -999
2007-10-19 11:17:46 51°29.308 2°51.981 -999 -999 -999 -999
2007-10-19 11:18:46 51°29.091 2°51.972 -999 -999 -999 -999
2007-10-19 11:19:46 51°28.879 2°51.969 -999 -999 -999 -999
2007-10-19 11:20:46 51°28.662 2°51.962 -999 -999 -999 -999
2007-10-19 11:21:46 51°28.446 2°51.969 -999 -999 -999 -999
2007-10-19 11:22:46 51°28.232 2°51.973 -999 -999 -999 -999
2007-10-19 11:23:46 51°28.018 2°51.964 -999 -999 -999 -999
2007-10-19 11:24:46 51°27.803 2°51.965 -999 -999 -999 -999
2007-10-19 11:25:46 51°27.585 2°51.961 -999 -999 -999 -999
2007-10-19 11:26:46 51°27.369 2°51.958 -999 -999 -999 -999
2007-10-19 11:27:46 51°27.152 2°51.95 -999 -999 -999 -999
2007-10-19 11:28:46 51°26.933 2°51.946 -999 -999 -999 -999
2007-10-19 11:29:46 51°26.715 2°51.947 -999 -999 -999 -999
2007-10-19 11:30:46 51°26.499 2°51.946 -999 -999 -999 -999
2007-10-19 11:31:46 51°26.282 2°51.941 -999 -999 -999 -999
2007-10-19 11:32:46 51°26.066 2°51.938 -999 -999 -999 -999
2007-10-19 11:33:46 51°25.851 2°51.936 -999 -999 -999 -999
2007-10-19 11:34:46 51°25.637 2°51.937 -999 -999 -999 -999
2007-10-19 11:35:46 51°25.422 2°51.94 -999 -999 -999 -999
2007-10-19 11:36:46 51°25.205 2°51.934 -999 -999 -999 -999
2007-10-19 11:37:46 51°24.987 2°51.933 -999 -999 -999 -999
2007-10-19 11:38:46 51°24.77 2°51.932 -999 -999 -999 -999
2007-10-19 11:39:46 51°24.551 2°51.93 -999 -999 -999 -999
2007-10-19 11:40:46 51°24.335 2°51.93 -999 -999 -999 -999
2007-10-19 11:41:46 51°24.117 2°51.94 -999 -999 -999 -999
2007-10-19 11:42:46 51°23.897 2°51.943 -999 -999 -999 -999
2007-10-19 11:43:46 51°23.677 2°51.952 -999 -999 -999 -999
2007-10-19 11:44:46 51°23.455 2°51.958 -999 -999 -999 -999
2007-10-19 11:45:46 51°23.232 2°51.965 -999 -999 -999 -999
2007-10-19 11:46:46 51°23.009 2°51.978 -999 -999 -999 -999
2007-10-19 11:47:46 51°22.788 2°51.991 -999 -999 -999 -999
2007-10-19 11:48:46 51°22.568 2°51.999 -999 -999 -999 -999
2007-10-19 11:49:46 51°22.353 2°52.012 -999 -999 -999 -999
2007-10-19 11:50:46 51°22.135 2°52.025 -999 -999 -999 -999
2007-10-19 11:51:46 51°21.919 2°52.038 -999 -999 -999 -999
2007-10-19 11:52:46 51°21.702 2°52.05 -999 -999 -999 -999
2007-10-19 11:53:46 51°21.484 2°52.061 -999 -999 -999 -999
2007-10-19 11:54:46 51°21.266 2°52.074 -999 -999 -999 -999
2007-10-19 11:55:46 51°21.046 2°52.082 -999 -999 -999 -999
2007-10-19 11:56:46 51°20.83 2°52.092 -999 -999 -999 -999
2007-10-19 11:57:46 51°20.613 2°52.101 -999 -999 -999 -999
2007-10-19 11:58:46 51°20.395 2°52.11 -999 -999 -999 -999
2007-10-19 11:59:46 51°20.176 2°52.115 -999 -999 -999 -999
2007-10-19 12:00:46 51°19.959 2°52.126 -999 -999 -999 -999
2007-10-19 12:01:46 51°19.743 2°52.133 -999 -999 -999 -999
2007-10-19 12:02:46 51°19.524 2°52.148 -999 -999 -999 -999
2007-10-19 12:03:46 51°19.308 2°52.158 -999 -999 -999 -999
2007-10-19 12:04:46 51°19.09 2°52.169 -999 -999 -999 -999
2007-10-19 12:05:46 51°18.873 2°52.181 -999 -999 -999 -999
2007-10-19 12:06:46 51°18.652 2°52.191 -999 -999 -999 -999
2007-10-19 12:07:46 51°18.434 2°52.206 -999 -999 -999 -999
2007-10-19 12:08:46 51°18.218 2°52.216 -999 -999 -999 -999
2007-10-19 12:09:46 51°18 2°52.225 -999 -999 -999 -999
2007-10-19 12:10:46 51°17.782 2°52.236 -999 -999 -999 -999
2007-10-19 12:11:46 51°17.56 2°52.244 -999 -999 -999 -999
2007-10-19 12:12:46 51°17.339 2°52.271 -999 -999 -999 -999
2007-10-19 12:13:46 51°17.127 2°52.345 -999 -999 -999 -999
2007-10-19 12:14:46 51°16.925 2°52.468 -999 -999 -999 -999
2007-10-19 12:15:46 51°16.741 2°52.633 -999 -999 -999 -999
2007-10-19 12:16:46 51°16.557 2°52.804 -999 -999 -999 -999
2007-10-19 12:17:46 51°16.376 2°52.972 -999 -999 -999 -999
2007-10-19 12:18:46 51°16.19 2°53.13 -999 -999 -999 -999
2007-10-19 12:19:46 51°16.003 2°53.285 -999 -999 -999 -999
2007-10-19 12:20:46 51°15.819 2°53.438 -999 -999 -999 -999
2007-10-19 12:21:46 51°15.64 2°53.601 -999 -999 -999 -999
2007-10-19 12:22:46 51°15.464 2°53.763 -999 -999 -999 -999
2007-10-19 12:23:46 51°15.285 2°53.93 -999 -999 -999 -999
2007-10-19 12:24:46 51°15.113 2°54.102 -999 -999 -999 -999
2007-10-19 12:25:46 51°14.938 2°54.273 -999 -999 -999 -999
2007-10-19 12:26:46 51°14.768 2°54.457 -999 -999 -999 -999
2007-10-19 12:27:46 51°14.604 2°54.657 -999 -999 -999 -999
2007-10-19 12:28:46 51°14.462 2°54.884 -999 -999 -999 -999
2007-10-19 12:29:46 51°14.338 2°55.131 -999 -999 -999 -999
2007-10-19 12:30:47 51°14.234 2°55.303 -999 -999 -999 -999
2007-10-19 12:31:50 51°14.125 2°55.411 -999 -999 -999 -999
2007-10-19 12:32:48 51°14.045 2°55.469 -999 -999 -999 -999
2007-10-19 12:33:47 51°13.968 2°55.528 -999 -999 -999 -999
2007-10-19 12:34:46 51°13.867 2°55.602 -999 -999 -999 -999
2007-10-19 12:35:46 51°13.765 2°55.692 -999 -999 -999 -999
2007-10-19 12:36:50 51°13.695 2°55.805 -999 -999 -999 -999
2007-10-19 12:37:50 51°13.652 2°55.905 -999 -999 -999 -999